DRK4369 VNKT-VQPR

Flight info

Callsign DRK4369
Flight time 0h 41m
Altitude 33000
Route IGRIS1E KIMTI G348 SUBSU DCT TAKTI DCT PRO
Aircraft A320/M-SDE3FGHIRWY/LB1

Departure

Time 2026-05-09 09:48
Airport Tribhuvan International Airport (VNKT)

Arrival

Time 2026-05-09 10:30
Airport Paro International Airport (VQPR)
Time Latitude Longitude Altitude Speed Heading
2026-05-09 09:20 27.70141 85.35925 4398 ft 0 kts 292°
2026-05-09 09:38 27.70139 85.35930 4398 ft 4 kts 292°
2026-05-09 09:38 27.70128 85.35958 4398 ft 4 kts 296°
2026-05-09 09:38 27.70114 85.35982 4397 ft 4 kts 324°
2026-05-09 09:39 27.70091 85.35991 4397 ft 3 kts 19°
2026-05-09 09:39 27.70083 85.35988 4397 ft 0 kts 22°
2026-05-09 09:41 27.70091 85.35992 4397 ft 3 kts 22°
2026-05-09 09:42 27.70127 85.36009 4397 ft 9 kts 22°
2026-05-09 09:42 27.70214 85.36048 4398 ft 17 kts 22°
2026-05-09 09:42 27.70347 85.36108 4398 ft 21 kts 23°
2026-05-09 09:42 27.70482 85.36170 4398 ft 20 kts 22°
2026-05-09 09:43 27.70564 85.36213 4398 ft 4 kts 40°
2026-05-09 09:43 27.70569 85.36219 4398 ft 0 kts 48°
2026-05-09 09:45 27.70574 85.36232 4399 ft 7 kts 68°
2026-05-09 09:45 27.70595 85.36305 4400 ft 8 kts 71°
2026-05-09 09:45 27.70627 85.36355 4401 ft 14 kts 34°
2026-05-09 09:46 27.70737 85.36407 4401 ft 18 kts 23°
2026-05-09 09:46 27.70847 85.36464 4398 ft 16 kts 50°
2026-05-09 09:46 27.70904 85.36529 4397 ft 11 kts 352°
2026-05-09 09:46 27.70905 85.36485 4397 ft 6 kts 216°
2026-05-09 09:47 27.70878 85.36469 4397 ft 0 kts 202°
2026-05-09 09:47 27.70829 85.36446 4399 ft 27 kts 202°
2026-05-09 09:48 27.70423 85.36261 4403 ft 100 kts 202°
2026-05-09 09:48 27.69543 85.35862 4399 ft 168 kts 202°
2026-05-09 09:48 27.68384 85.35336 4961 ft 183 kts 202°
2026-05-09 09:48 27.67186 85.34765 5895 ft 191 kts 206°
2026-05-09 09:49 27.66242 85.33696 6589 ft 199 kts 251°
2026-05-09 09:49 27.66232 85.32147 7131 ft 198 kts 283°
2026-05-09 09:49 27.66562 85.30665 7510 ft 206 kts 283°
2026-05-09 09:49 27.66981 85.29051 7941 ft 213 kts 296°
2026-05-09 09:50 27.68035 85.27877 8296 ft 221 kts 339°
2026-05-09 09:50 27.69534 85.27732 8792 ft 219 kts 17°
2026-05-09 09:50 27.70849 85.28523 9380 ft 212 kts 38°
2026-05-09 09:50 27.71975 85.29559 10033 ft 206 kts 45°
2026-05-09 09:51 27.72894 85.30790 10538 ft 206 kts 58°
2026-05-09 09:51 27.73582 85.32241 10993 ft 211 kts 70°
2026-05-09 09:51 27.73983 85.33959 11508 ft 212 kts 84°
2026-05-09 09:51 27.74015 85.35516 11983 ft 213 kts 96°
2026-05-09 09:52 27.73720 85.37158 12484 ft 214 kts 109°
2026-05-09 09:52 27.73106 85.38694 13013 ft 216 kts 121°
2026-05-09 09:52 27.72199 85.40047 13532 ft 218 kts 134°
2026-05-09 09:52 27.71026 85.41152 14043 ft 221 kts 147°
2026-05-09 09:53 27.69632 85.41939 14516 ft 223 kts 159°
2026-05-09 09:53 27.68101 85.42360 14939 ft 226 kts 173°
2026-05-09 09:53 27.66514 85.42585 15203 ft 236 kts 164°
2026-05-09 09:53 27.64971 85.43315 15382 ft 249 kts 146°
2026-05-09 09:54 27.63669 85.44651 15528 ft 265 kts 126°
2026-05-09 09:54 27.62821 85.46556 15688 ft 281 kts 104°
2026-05-09 09:54 27.62600 85.48822 15965 ft 295 kts 91°
2026-05-09 09:54 27.62520 85.51164 16187 ft 311 kts 93°
2026-05-09 09:55 27.62387 85.53663 16398 ft 327 kts 94°
2026-05-09 09:55 27.62225 85.56274 16594 ft 343 kts 96°
2026-05-09 09:55 27.61707 85.58961 16786 ft 358 kts 106°
2026-05-09 09:55 27.61244 85.60798 16892 ft 369 kts 105°
2026-05-09 09:56 27.60359 85.64646 17085 ft 390 kts 102°
2026-05-09 09:56 27.59794 85.67710 17366 ft 400 kts 101°
2026-05-09 09:56 27.59288 85.70815 17854 ft 404 kts 100°
2026-05-09 09:56 27.58799 85.73955 18360 ft 408 kts 100°
2026-05-09 09:57 27.58308 85.77072 18790 ft 412 kts 100°
2026-05-09 09:57 27.57958 85.79229 19101 ft 414 kts 100°
2026-05-09 09:57 27.57237 85.83514 19708 ft 418 kts 101°
2026-05-09 09:57 27.56861 85.85692 20011 ft 420 kts 101°
2026-05-09 09:58 27.56302 85.88913 20451 ft 423 kts 101°
2026-05-09 09:58 27.55733 85.92177 20882 ft 426 kts 101°
2026-05-09 09:58 27.55160 85.95460 21300 ft 429 kts 101°
2026-05-09 09:58 27.54580 85.98771 21712 ft 431 kts 101°
2026-05-09 09:59 27.53993 86.02108 22127 ft 434 kts 101°
2026-05-09 09:59 27.53406 86.05459 22526 ft 437 kts 101°
2026-05-09 09:59 27.52817 86.08824 22924 ft 439 kts 101°
2026-05-09 09:59 27.52226 86.12208 23307 ft 442 kts 101°
2026-05-09 10:00 27.51630 86.15629 23672 ft 444 kts 101°
2026-05-09 10:00 27.51024 86.19098 23981 ft 447 kts 101°
2026-05-09 10:00 27.50426 86.22519 24281 ft 449 kts 101°
2026-05-09 10:00 27.49817 86.25968 24581 ft 451 kts 101°
2026-05-09 10:01 27.49193 86.29437 24873 ft 453 kts 102°
2026-05-09 10:01 27.48542 86.32908 25167 ft 455 kts 102°
2026-05-09 10:01 27.47865 86.36411 25448 ft 457 kts 102°
2026-05-09 10:01 27.47168 86.39967 25744 ft 460 kts 102°
2026-05-09 10:02 27.46480 86.43467 26012 ft 462 kts 102°
2026-05-09 10:02 27.45784 86.47038 26269 ft 464 kts 102°
2026-05-09 10:02 27.45135 86.50380 26518 ft 466 kts 102°
2026-05-09 10:02 27.44449 86.53959 26771 ft 468 kts 102°
2026-05-09 10:03 27.43758 86.57574 27015 ft 470 kts 102°
2026-05-09 10:03 27.43068 86.61161 27260 ft 472 kts 102°
2026-05-09 10:03 27.42369 86.64780 27493 ft 474 kts 102°
2026-05-09 10:03 27.41665 86.68419 27724 ft 476 kts 102°
2026-05-09 10:04 27.40956 86.72060 27945 ft 478 kts 102°
2026-05-09 10:04 27.40240 86.75731 28159 ft 480 kts 102°
2026-05-09 10:04 27.39525 86.79406 28359 ft 481 kts 102°
2026-05-09 10:04 27.38808 86.83087 28542 ft 483 kts 102°
2026-05-09 10:05 27.38089 86.86771 28797 ft 483 kts 103°
2026-05-09 10:05 27.37364 86.90472 29070 ft 483 kts 103°
2026-05-09 10:05 27.36636 86.94171 29322 ft 484 kts 103°
2026-05-09 10:05 27.35910 86.97861 29571 ft 484 kts 103°
2026-05-09 10:06 27.35183 87.01568 29837 ft 485 kts 103°
2026-05-09 10:06 27.34456 87.05270 30088 ft 486 kts 103°
2026-05-09 10:06 27.33728 87.08983 30302 ft 486 kts 103°
2026-05-09 10:06 27.32996 87.12699 30520 ft 486 kts 103°
2026-05-09 10:07 27.32234 87.16459 30715 ft 487 kts 107°
2026-05-09 10:07 27.31140 87.19994 30896 ft 485 kts 116°
2026-05-09 10:07 27.29554 87.23332 31090 ft 483 kts 124°
2026-05-09 10:07 27.27782 87.26548 31278 ft 484 kts 125°
2026-05-09 10:08 27.26008 87.29768 31491 ft 484 kts 125°
2026-05-09 10:08 27.24238 87.32982 31729 ft 484 kts 125°
2026-05-09 10:08 27.22466 87.36193 31943 ft 484 kts 126°
2026-05-09 10:08 27.20687 87.39410 32143 ft 484 kts 126°
2026-05-09 10:09 27.18905 87.42627 32320 ft 485 kts 126°
2026-05-09 10:09 27.17126 87.45840 32552 ft 485 kts 126°
2026-05-09 10:09 27.15357 87.49037 32841 ft 483 kts 127°
2026-05-09 10:09 27.13561 87.52283 32988 ft 485 kts 127°
2026-05-09 10:10 27.11774 87.55513 33030 ft 487 kts 127°
2026-05-09 10:10 27.08115 87.62122 33004 ft 489 kts 127°
2026-05-09 10:11 27.04541 87.68555 33006 ft 490 kts 128°
2026-05-09 10:11 27.00901 87.75102 32998 ft 490 kts 128°
2026-05-09 10:12 26.97294 87.81593 32987 ft 490 kts 128°
2026-05-09 10:12 26.93673 87.88093 32977 ft 491 kts 129°
2026-05-09 10:13 26.90070 87.94527 32971 ft 491 kts 128°
2026-05-09 10:13 26.86576 88.00762 32946 ft 492 kts 129°
2026-05-09 10:14 26.82691 88.07697 32906 ft 492 kts 129°
2026-05-09 10:14 26.79047 88.14197 32877 ft 492 kts 129°
2026-05-09 10:15 26.75413 88.20674 32868 ft 493 kts 129°
2026-05-09 10:15 26.72446 88.27726 32855 ft 511 kts 109°
2026-05-09 10:15 26.71922 88.31723 32845 ft 521 kts 96°
2026-05-09 10:16 26.71984 88.34380 32843 ft 525 kts 87°
2026-05-09 10:16 26.72696 88.38420 32838 ft 530 kts 74°
2026-05-09 10:16 26.74770 88.43436 32843 ft 532 kts 58°
2026-05-09 10:17 26.78642 88.50452 32867 ft 532 kts 58°
2026-05-09 10:17 26.82504 88.57536 32902 ft 532 kts 58°
2026-05-09 10:18 26.85707 88.63431 31736 ft 533 kts 58°
2026-05-09 10:18 26.87653 88.67010 30443 ft 536 kts 57°
2026-05-09 10:18 26.89483 88.70373 28927 ft 531 kts 57°
2026-05-09 10:18 26.91527 88.74125 26983 ft 528 kts 57°
2026-05-09 10:19 26.93423 88.77611 25542 ft 519 kts 58°
2026-05-09 10:19 26.95257 88.80985 25010 ft 492 kts 58°
2026-05-09 10:19 26.96999 88.84190 24245 ft 475 kts 58°
2026-05-09 10:19 26.98688 88.87307 23531 ft 459 kts 58°
2026-05-09 10:20 27.00268 88.90343 22804 ft 444 kts 59°
2026-05-09 10:20 27.01775 88.93352 22182 ft 439 kts 60°
2026-05-09 10:20 27.03240 88.96337 21565 ft 434 kts 60°
2026-05-09 10:20 27.04673 88.99272 21179 ft 418 kts 61°
2026-05-09 10:21 27.06031 89.02047 21098 ft 394 kts 60°
2026-05-09 10:21 27.07342 89.04704 20945 ft 382 kts 60°
2026-05-09 10:21 27.08617 89.07265 20781 ft 372 kts 60°
2026-05-09 10:21 27.09863 89.09761 20630 ft 360 kts 60°
2026-05-09 10:22 27.11086 89.12213 20469 ft 349 kts 60°
2026-05-09 10:22 27.12252 89.14554 20323 ft 339 kts 60°
2026-05-09 10:22 27.13489 89.16758 20190 ft 328 kts 47°
2026-05-09 10:22 27.15205 89.18377 20026 ft 317 kts 27°
2026-05-09 10:23 27.17247 89.19275 19545 ft 317 kts 13°
2026-05-09 10:23 27.19374 89.19937 19095 ft 319 kts 13°
2026-05-09 10:23 27.21508 89.20601 18669 ft 317 kts 14°
2026-05-09 10:23 27.23366 89.21184 18289 ft 313 kts 14°
2026-05-09 10:24 27.25417 89.21833 17842 ft 307 kts 14°
2026-05-09 10:24 27.27459 89.22483 17412 ft 302 kts 14°
2026-05-09 10:24 27.29477 89.23129 16863 ft 301 kts 14°
2026-05-09 10:24 27.31474 89.23769 16447 ft 295 kts 14°
2026-05-09 10:25 27.33435 89.24399 16050 ft 290 kts 15°
2026-05-09 10:25 27.35362 89.25018 15655 ft 284 kts 15°
2026-05-09 10:25 27.37250 89.25624 15272 ft 280 kts 15°
2026-05-09 10:25 27.39114 89.26118 14906 ft 272 kts
2026-05-09 10:26 27.40977 89.26123 14535 ft 265 kts 351°
2026-05-09 10:26 27.42766 89.25762 14209 ft 259 kts 355°
2026-05-09 10:26 27.44516 89.25899 14045 ft 254 kts 15°
2026-05-09 10:26 27.46064 89.26665 13981 ft 236 kts 34°
2026-05-09 10:27 27.47211 89.27866 13892 ft 210 kts 54°
2026-05-09 10:27 27.47889 89.29191 13688 ft 186 kts 69°
2026-05-09 10:27 27.48235 89.30701 13067 ft 187 kts 86°
2026-05-09 10:27 27.48176 89.32064 12600 ft 186 kts 101°
2026-05-09 10:28 27.47657 89.33402 11954 ft 188 kts 125°
2026-05-09 10:28 27.46816 89.34603 10950 ft 205 kts 133°
2026-05-09 10:28 27.45897 89.35824 10380 ft 199 kts 128°
2026-05-09 10:28 27.45169 89.37200 9920 ft 189 kts 113°
2026-05-09 10:29 27.44737 89.38494 9404 ft 188 kts 113°
2026-05-09 10:29 27.44218 89.39824 8902 ft 184 kts 116°
2026-05-09 10:29 27.43490 89.40958 8356 ft 172 kts 143°
2026-05-09 10:29 27.42445 89.41487 7941 ft 162 kts 172°
2026-05-09 10:30 27.41396 89.41812 7527 ft 160 kts 155°
2026-05-09 10:30 27.40456 89.42389 7337 ft 136 kts 151°
2026-05-09 10:30 27.39897 89.42743 7319 ft 48 kts 151°
2026-05-09 10:30 27.39812 89.42798 7316 ft 3 kts 149°
2026-05-09 10:31 27.39751 89.42837 7314 ft 20 kts 149°
2026-05-09 10:31 27.39585 89.42943 7308 ft 28 kts 150°
2026-05-09 10:31 27.39447 89.43007 7301 ft 6 kts 126°
2026-05-09 10:31 27.39450 89.43013 7301 ft 1 kts 64°
2026-05-09 10:32 27.39466 89.43020 7301 ft 0 kts 350°
2026-05-09 10:32 27.39479 89.43009 7302 ft 10 kts 328°
2026-05-09 10:32 27.39609 89.42926 7310 ft 32 kts 331°
2026-05-09 10:32 27.39867 89.42762 7318 ft 52 kts 329°
2026-05-09 10:33 27.40198 89.42551 7322 ft 53 kts 329°
2026-05-09 10:33 27.40488 89.42368 7339 ft 35 kts 330°
2026-05-09 10:33 27.40590 89.42249 7343 ft 16 kts 248°
2026-05-09 10:33 27.40535 89.42174 7345 ft 10 kts 243°
2026-05-09 10:34 27.40530 89.42163 7345 ft 0 kts 241°